Location: Noordwijk
(52.2400°N, 4.4500°E)
Time: 02:08:00
(UTC+00:00)

PCSat - Pass Details

Date: 13 December 2022
Orbit: 785 x 793 km, 67.0° (Epoch: 28 January)

Event Time Altitude Azimuth Distance (km) Brightness Sun altitude
Rises 20:07:48 0° 282° (WNW) 3,289 13.6 -41.0°
Reaches altitude 10° 20:10:56 10° 301° (WNW) 2,363 12.6 -41.5°
Enters shadow 20:12:19 15° 314° (NW) 2,055 12.2 -41.7°
